EW4389 Weather Reports


time (UTC)temp
C
wind
direction
speed
KPH
gust
KPH
rain 1hr
cm
rain 24hr
cm
rain mn
cm
humidity
%
barometer
mb
20260902184553 26 269 3.2 16.1 0.00 2.92 2.92 41 1010.2
20260902183102 26 237 0.0 14.5 0.00 2.92 2.92 45 1009.7
20260902181554 26 238 3.2 16.1 0.00 2.92 2.92 46 1010.1
20260902180050 26 298 4.8 14.5 0.00 2.92 2.92 48 1010.7
20260902174553 26 312 4.8 17.7 0.00 2.92 2.92 49 1011.2
20260902173109 27 273 9.7 19.3 0.00 2.92 2.92 49 1011.2
20260902171546 27 277 4.8 14.5 0.00 2.92 2.92 39 1010.9
20260902170042 26 253 3.2 16.1 0.00 2.92 2.92 33 1010.8
20260902164540 26 279 3.2 19.3 0.00 2.92 2.92 31 1011.0
20260902163038 25 267 4.8 20.9 0.00 2.92 2.92 36 1011.0
20260902161534 25 265 8.0 20.9 0.00 2.92 2.92 33 1011.1
20260902160048 25 251 8.0 19.3 0.00 2.92 2.92 30 1011.3
20260902154540 23 301 9.7 22.5 0.00 2.92 2.92 30 1011.3
20260902153036 23 282 6.4 20.9 0.00 2.92 2.92 31 1011.2
20260902151520 22 270 6.4 17.7 0.00 2.92 2.92 32 1011.2
20260902150017 22 285 6.4 20.9 0.00 2.92 2.92 32 1011.4
20260902144516 21 289 4.8 12.9 0.03 2.92 2.92 32 1011.1
20260902143015 20 298 6.4 16.1 0.08 2.92 2.92 32 1011.6
20260902141512 20 304 0.0 1.6 0.25 2.92 2.92 33 1011.9
20260902140012 20 304 0.0 12.9 2.16 2.92 2.92 33 1011.5
20260902134511 20 327 0.0 14.5 2.90 2.90 2.90 32 1011.9
20260902133008 20 330 12.9 30.6 2.84 2.84 2.84 32 1012.9
20260902131505 20 354 14.5 29.0 2.67 2.67 2.67 32 1013.7
20260902130001 22 263 19.3 51.5 0.43 0.43 0.43 31 1013.0
20260902124609 22 257 8.0 17.7 0.00 0.00 0.00 31 1011.1
20260902123143 22 249 6.4 14.5 0.00 0.00 0.00 32 1011.2
20260902121556 22 274 3.2 19.3 0.00 0.00 0.00 32 1011.5
20260902120055 22 236 8.0 19.3 0.00 0.00 0.00 32 1010.1
20260902114553 22 241 11.3 25.7 0.00 0.00 0.00 32 1010.7
20260902113051 22 244 8.0 20.9 0.00 0.00 0.00 32 1010.2
20260902111552 21 221 1.6 11.3 0.00 0.00 0.00 32 1010.0
20260902110057 21 214 6.4 16.1 0.00 0.00 0.00 32 1010.2
20260902104550 21 247 4.8 19.3 0.00 0.00 0.00 32 1010.1
20260902103047 21 238 0.0 16.1 0.00 0.00 0.00 32 1010.2
20260902101553 21 239 1.6 6.4 0.00 0.00 0.00 32 1010.0
20260902100043 21 238 0.0 1.6 0.00 0.00 0.00 32 1010.4
20260902094545 22 238 0.0 3.2 0.00 0.08 0.00 32 1010.6
20260902093040 22 238 0.0 11.3 0.00 0.08 0.00 32 1010.8
20260902091558 22 238 1.6 9.7 0.00 0.08 0.00 32 1010.8
20260902090042 22 238 4.8 11.3 0.00 0.08 0.00 32 1010.8
20260902084548 22 240 4.8 12.9 0.00 0.08 0.00 32 1010.9
20260902083041 22 238 0.0 4.8 0.00 0.08 0.00 32 1011.3
20260902081537 22 238 0.0 6.4 0.00 0.08 0.00 32 1011.3
20260902080034 22 240 4.8 14.5 0.00 0.08 0.00 32 1011.4
20260902074534 22 230 3.2 12.9 0.00 0.08 0.00 32 1011.2
20260902073037 21 286 1.6 4.8 0.00 0.08 0.00 32 1011.4
20260902071535 22 286 0.0 3.2 0.00 0.08 0.00 32 1011.5
20260902070039 22 286 0.0 6.4 0.00 0.08 0.00 32 1011.3
20260902064538 21 286 0.0 6.4 0.00 0.08 0.00 32 1011.4
20260902063029 21 286 1.6 8.0 0.00 0.08 0.00 32 1011.5
20260902061528 21 286 0.0 8.0 0.00 0.08 0.00 32 1011.7
20260902060027 21 330 0.0 6.4 0.00 0.08 0.00 32 1011.8
20260902054526 21 329 0.0 1.6 0.00 0.13 0.00 32 1011.9
20260902053025 21 330 0.0 3.2 0.00 0.13 0.00 32 1011.7
20260902051522 21 329 0.0 4.8 0.00 0.13 0.00 32 1011.7
20260902050022 21 329 0.0 4.8 0.00 0.13 0.00 32 1011.5
20260902044521 21 330 0.0 0.0 0.00 0.15 0.00 33 1011.4
20260902043020 21 330 0.0 0.0 0.00 0.15 0.00 33 1011.5
20260902041537 21 330 0.0 3.2 0.00 0.15 0.00 33 1011.3
20260902040016 21 334 0.0 1.6 0.00 0.15 0.00 33 1011.4
20260902034516 22 334 0.0 0.0 0.00 0.15 0.15 33 1011.2
20260902033014 22 330 0.0 1.6 0.00 0.15 0.15 33 1011.2
20260902031509 22 330 0.0 1.6 0.00 0.15 0.15 33 1011.2
20260902030006 22 330 0.0 1.6 0.00 0.15 0.15 33 1011.3
20260902024501 22 330 0.0 3.2 0.00 0.15 0.15 33 1011.4
20260902023057 22 334 0.0 3.2 0.00 0.15 0.15 33 1011.4
20260902021557 22 330 0.0 1.6 0.00 0.15 0.15 33 1011.6
20260902020054 23 330 0.0 0.0 0.00 0.15 0.15 33 1011.7
20260902014544 23 334 0.0 1.6 0.00 0.15 0.15 33 1011.5
20260902013039 23 334 0.0 0.0 0.00 0.15 0.15 33 1011.5
20260902011533 23 330 0.0 0.0 0.00 0.15 0.15 34 1011.3
20260902010034 23 334 0.0 0.0 0.00 0.15 0.15 35 1011.2
20260902004525 23 334 0.0 0.0 0.00 0.15 0.15 36 1011.0
20260902003021 23 334 0.0 0.0 0.00 0.15 0.15 38 1010.7
20260902001519 24 334 0.0 0.0 0.00 0.15 0.15 39 1010.4
20260902000023 25 334 0.0 0.0 0.00 0.15 0.15 40 1010.3
20260901234507 25 330 0.0 0.0 0.00 0.15 0.15 40 1010.2
20260901233002 25 330 0.0 1.6 0.00 0.15 0.15 41 1010.4
20260901231558 26 330 0.0 3.2 0.00 0.15 0.15 41 1010.6
20260901230058 26 330 1.6 4.8 0.00 0.15 0.15 43 1010.5
20260901224553 26 330 1.6 4.8 0.00 0.15 0.15 42 1010.6
20260901223107 26 330 0.0 8.0 0.00 0.15 0.15 44 1010.6
20260901221552 26 334 3.2 12.9 0.00 0.15 0.15 45 1010.6
20260901220051 26 330 4.8 12.9 0.00 0.15 0.15 43 1010.6
20260901214546 26 317 6.4 14.5 0.00 0.15 0.15 43 1010.3
20260901213038 26 349 4.8 14.5 0.00 0.15 0.15 43 1010.2
20260901211533 26 339 3.2 9.7 0.00 0.15 0.15 40 1010.2
20260901210037 26 353 3.2 9.7 0.00 0.15 0.15 45 1010.3
20260901204533 26 354 3.2 9.7 0.00 0.18 0.15 46 1010.3
20260901203043 27 348 4.8 14.5 0.00 0.18 0.15 47 1010.3
20260901201524 27 315 11.3 16.1 0.00 0.18 0.15 51 1010.2
20260901200020 27 356 8.0 20.9 0.00 0.18 0.15 52 1010.2
20260901194516 27 327 8.0 19.3 0.00 0.33 0.15 47 1010.2
20260901193013 27 330 9.7 19.3 0.00 0.33 0.15 46 1010.4
20260901191506 27 334 8.0 16.1 0.00 0.33 0.15 48 1010.5
20260901190002 27 339 9.7 17.7 0.00 0.33 0.15 46 1010.5